[[{"header":{"parameterUnit":"m.s-1","parameterCategory":1,"la1":30.2991,"la2":30.254,"lo1":-89.0895,"lo2":-89.0444,"dy":0.0017,"dx":0.0017,"nx":28,"ny":28,"refTime":"2026-02-13T09:00:00:Z","depth":0,"parameterNumber":2,"parameterNumberName":"U-component_of_WINDS"},"data":[0,0,0,0,0,0,0,0,0,0,0,0,0,0,0,0,0,0,0,0,0,0,0,0,0,0,0,0,0,0,0,0,0,0,0,0,0,0,0,0,0,0,0,0,0,0,0,0,0,0,0,0,0,0,0,0,0,0,0.1879,0.1879,0,0.1898,0.1898,0.1898,0.1895,0.1894,0.1894,0.1894,0.1914,0.1914,0.1915,0,0,0,0,0,0,0,0,0,0,0,0,0,0.1839,0.184,0.1879,0.1879,0.1879,0.1898,0.1898,0.1898,0.1895,0.1894,0.1894,0.1894,0.1913,0.1914,0.1915,0,0,0,0,0,0,0,0,0,0,0,0,0,0.1857,0.184,0.1879,0.188,0.188,0.1898,0.1898,0.1898,0.1895,0.1894,0.1894,0.1893,0.1913,0.1914,0.1915,0.1933,0,0,0.1919,0.192,0,0,0,0,0,0,0,0,0.1856,0.1859,0.1879,0.188,0.188,0.1893,0.1891,0.191,0.1895,0.1889,0.1894,0.1893,0.1907,0.1909,0.1914,0.1934,0.1935,0.1919,0.192,0.1921,0.1921,0,0,0,0,0,0,0,0.1855,0.1858,0.1886,0.188,0.188,0.1879,0.1881,0.1895,0.1901,0.189,0.1889,0.1892,0.1907,0.1912,0.1914,0.1935,0.1919,0.1921,0.1921,0.1922,0.1971,0.1972,0,0,0,0,0,0,0.1853,0.1857,0.1886,0.1887,0.1867,0.188,0.1882,0.189,0.1901,0.1902,0.1892,0.1891,0.1911,0.1913,0.1915,0.1936,0.1921,0.1922,0.1923,0.1971,0.1971,0.1972,0,0,0,0,0,0,0.1853,0.1856,0.1885,0.1872,0.1875,0.1881,0.1889,0.189,0.1895,0.1903,0.1904,0.1896,0.191,0.1913,0.1929,0.1937,0.1922,0.1924,0.197,0.1971,0.1972,0.1979,0,0,0,0,0,0,0.1851,0.1856,0.1863,0.1872,0.1876,0.1898,0.189,0.1891,0.1897,0.1897,0.1907,0.1908,0.191,0.1927,0.193,0.1938,0.1925,0.1969,0.197,0.1971,0.1978,0.198,0.1982,0,0,0,0,0,0.185,0.1864,0.1863,0.1866,0.1885,0.1899,0.1901,0.1903,0.1898,0.1905,0.191,0.1908,0.1935,0.1928,0.1932,0.1941,0.1969,0.197,0.1971,0.1977,0.198,0.1982,0,0,0,0,0,0,0.1856,0.1865,0.1864,0.1882,0.1889,0.1898,0.1907,0.1906,0.1915,0.1914,0.1917,0.1919,0.1935,0.1939,0.1931,0.1958,0.1951,0.1953,0.1955,0.1957,0.1959,0.1957,0.1926,0,0,0,0,0,0.1859,0.187,0.1877,0.1892,0.1896,0.1901,0.1907,0.1908,0.1916,0.1919,0.1925,0.1933,0.1944,0.1951,0.1961,0.1979,0.1981,0.1987,0.1988,0.199,0.1991,0.2001,0.2003,0.1976,0.1976,0.1976,0,0,0.1866,0.1873,0.1879,0.1893,0.19,0.191,0.1904,0.1916,0.1923,0.1921,0.1936,0.1941,0.195,0.1967,0.1974,0.1971,0.1999,0.1991,0.1992,0.1993,0.2002,0.2005,0.2007,0.1977,0.1977,0.1977,0,0,0.1884,0.189,0.1903,0.1909,0.1918,0.1921,0.1924,0.1933,0.1936,0.1951,0.195,0.1959,0.1977,0.1984,0.1989,0.2009,0.2008,0.2013,0.2022,0.2031,0.2033,0.2035,0.2042,0.2044,0.2014,0.2014,0.2014,0,0.1891,0.1908,0.191,0.1921,0.1928,0.1926,0.1939,0.1945,0.1957,0.1961,0.1957,0.1979,0.1986,0.2003,0.2008,0.2013,0.2016,0.2011,0.2033,0.2035,0.2036,0.2043,0.2045,0.2015,0.2015,0.2015,0.2015,0,0.1916,0.1927,0.1936,0.1948,0.1955,0.1968,0.1971,0.1978,0.1979,0.1982,0.1997,0.2004,0.2015,0.202,0.202,0.2038,0.2035,0.2032,0.2025,0.2039,0.2045,0.2048,0.2016,0.2015,0.2015,0.2015,0,0,0.1938,0.195,0.1954,0.1959,0.1969,0.1977,0.1989,0.2,0.2006,0.2015,0.2025,0.204,0.2037,0.2043,0.2044,0.2052,0.2067,0.2048,0.2048,0.2051,0.2086,0.2088,0.2091,0.2066,0.2066,0.2067,0.2085,0,0.1957,0.1978,0.198,0.1999,0.2009,0.2008,0.2018,0.2025,0.2029,0.2038,0.2042,0.2052,0.2048,0.2051,0.2059,0.2063,0.2074,0.2062,0.2075,0.2075,0.2072,0.2094,0.2097,0.2114,0.2088,0.2088,0.2088,0,0.1981,0.199,0.201,0.2018,0.2023,0.2032,0.2042,0.2051,0.2059,0.2061,0.2068,0.2068,0.208,0.2072,0.2089,0.2081,0.2086,0.2089,0.209,0.2091,0.2083,0.2096,0.2119,0.2122,0.2092,0.2092,0.2092,0,0.1995,0.2012,0.2026,0.203,0.204,0.2047,0.2051,0.2059,0.2065,0.2074,0.2078,0.2088,0.2093,0.2101,0.2104,0.2098,0.212,0.2113,0.2122,0.2122,0.2126,0.2126,0.2151,0.213,0.213,0.213,0.213,0,0.2015,0.2027,0.2032,0.2041,0.2054,0.2056,0.207,0.2074,0.208,0.2089,0.2089,0.2098,0.2101,0.211,0.2112,0.2125,0.2128,0.2129,0.213,0.2129,0.2129,0.2133,0.2131,0.2131,0.2131,0.2131,0.2131,0,0.2033,0.2036,0.2051,0.206,0.2062,0.2071,0.2078,0.2086,0.209,0.2101,0.2104,0.2109,0.212,0.2123,0.2136,0.2138,0.2153,0.2153,0.215,0.215,0.2159,0.2158,0.2186,0.219,0.2168,0.2168,0.2168,0,0.2045,0.2055,0.2064,0.207,0.2074,0.2084,0.2091,0.2093,0.21,0.2109,0.2116,0.2127,0.2135,0.2152,0.2157,0.2167,0.2166,0.2176,0.2168,0.2167,0.2166,0.2165,0.2166,0.2177,0.2177,0.2178,0.2178,0,0.2067,0.2068,0.2077,0.2087,0.2095,0.2102,0.211,0.2115,0.2118,0.2126,0.2137,0.2143,0.2156,0.2166,0.2176,0.2181,0.218,0.218,0.2183,0.2182,0.218,0.2181,0.2154,0.2179,0.2179,0.2179,0.2179,0.2179,0.2082,0.209,0.2098,0.2108,0.2114,0.2121,0.2128,0.2133,0.2142,0.2152,0.2153,0.2165,0.2172,0.2185,0.219,0.2199,0.2197,0.22,0.2201,0.2202,0.2202,0.2179,0.2201,0.2201,0.2201,0.2201,0.2201,0,0.2103,0.2108,0.2117,0.2128,0.2136,0.2134,0.2142,0.2149,0.2159,0.2166,0.2174,0.2186,0.2196,0.2202,0.2212,0.2218,0.2217,0.222,0.222,0.2221,0.2204,0.2201,0.222,0.222,0.222,0.222,0.222,0.222,0.2115,0.2129,0.2131,0.2147,0.2152,0.2163,0.2168,0.2174,0.2179,0.2193,0.2201,0.2205,0.2211,0.2221,0.223,0.2231,0.2235,0.2238,0.2239,0.2224,0.2222,0.222,0.2217,0.2239,0.2239,0.2254,0.2254,0.2255]},{"header":{"parameterUnit":"m.s-1","parameterCategory":1,"la1":30.2991,"la2":30.254,"lo1":-89.0895,"lo2":-89.0444,"dy":0.0017,"dx":0.0017,"nx":28,"ny":28,"refTime":"2026-02-13T09:00:00:Z","depth":0,"parameterNumber":3,"parameterNumberName":"V-component_of_WINDS"},"data":[0,0,0,0,0,0,0,0,0,0,0,0,0,0,0,0,0,0,0,0,0,0,0,0,0,0,0,0,0,0,0,0,0,0,0,0,0,0,0,0,0,0,0,0,0,0,0,0,0,0,0,0,0,0,0,0,0,0,0.1898,0.1897,0,0.1847,0.1846,0.1846,0.1816,0.1816,0.1816,0.1816,0.1764,0.1763,0.1761,0,0,0,0,0,0,0,0,0,0,0,0,0,0.1969,0.1968,0.1898,0.1897,0.1896,0.1847,0.1846,0.1846,0.1816,0.1816,0.1816,0.1816,0.1764,0.1763,0.1761,0,0,0,0,0,0,0,0,0,0,0,0,0,0.193,0.1967,0.1898,0.1876,0.1873,0.1847,0.1846,0.1845,0.1816,0.1816,0.1816,0.1816,0.1765,0.1763,0.1761,0.1753,0,0,0.1755,0.1754,0,0,0,0,0,0,0,0,0.1932,0.1927,0.188,0.1877,0.1874,0.1838,0.1852,0.1814,0.1816,0.1838,0.1816,0.1816,0.1789,0.1785,0.1776,0.175,0.1748,0.1755,0.1754,0.1753,0.1753,0,0,0,0,0,0,0,0.1935,0.193,0.1878,0.1879,0.1876,0.1868,0.1863,0.1845,0.1815,0.1836,0.1834,0.1828,0.1787,0.1778,0.1774,0.1747,0.1755,0.1753,0.1752,0.1752,0.1712,0.1712,0,0,0,0,0,0,0.1941,0.1932,0.1879,0.1876,0.1904,0.1867,0.1861,0.185,0.1815,0.181,0.1828,0.1827,0.1781,0.1776,0.1772,0.176,0.1753,0.1751,0.175,0.1712,0.1712,0.1712,0,0,0,0,0,0,0.1943,0.1937,0.1881,0.1903,0.1896,0.1866,0.1854,0.1849,0.1839,0.1809,0.1804,0.1824,0.1781,0.1775,0.1758,0.1758,0.175,0.1749,0.1712,0.1712,0.1712,0.1735,0,0,0,0,0,0,0.1945,0.1938,0.1934,0.1903,0.1895,0.1868,0.1854,0.1848,0.1836,0.1834,0.1804,0.1799,0.178,0.1761,0.1756,0.1755,0.1747,0.1712,0.1712,0.1712,0.1735,0.1736,0.1738,0,0,0,0,0,0.1948,0.1943,0.1934,0.1928,0.189,0.1868,0.1863,0.1842,0.1836,0.1832,0.1813,0.18,0.1758,0.1759,0.1753,0.1752,0.1711,0.1712,0.1712,0.1734,0.1736,0.1738,0,0,0,0,0,0,0.1975,0.1939,0.1929,0.1914,0.1894,0.1863,0.1858,0.1845,0.1826,0.1825,0.1799,0.1792,0.1778,0.1763,0.1765,0.1742,0.1733,0.1732,0.1752,0.1754,0.1756,0.176,0.1746,0,0,0,0,0,0.1979,0.1965,0.1934,0.1924,0.1914,0.1888,0.1877,0.1862,0.1841,0.1833,0.1812,0.1792,0.1774,0.1763,0.1745,0.1732,0.1725,0.1728,0.173,0.1731,0.1731,0.1722,0.1723,0.1713,0.1713,0.1713,0,0,0.1988,0.1967,0.1959,0.1929,0.1912,0.1897,0.1881,0.1866,0.1855,0.183,0.1813,0.1797,0.1772,0.1757,0.1749,0.1744,0.1732,0.1732,0.1733,0.1732,0.1723,0.1724,0.1725,0.1713,0.1713,0.1713,0,0,0.1997,0.1979,0.1969,0.1952,0.1926,0.1908,0.1906,0.1876,0.1864,0.1846,0.1828,0.1813,0.1784,0.1767,0.1755,0.1756,0.1742,0.175,0.176,0.1752,0.1752,0.1753,0.1753,0.1754,0.175,0.175,0.175,0,0.2011,0.1988,0.1965,0.1951,0.1938,0.1915,0.1904,0.1888,0.1858,0.185,0.1844,0.1806,0.1788,0.1768,0.1769,0.1759,0.1755,0.1754,0.1754,0.1754,0.1755,0.1755,0.1755,0.1751,0.1751,0.1751,0.1751,0,0.2007,0.1991,0.1986,0.1957,0.1943,0.1931,0.1905,0.1894,0.188,0.1863,0.1844,0.1822,0.1799,0.1793,0.1779,0.1771,0.1768,0.1759,0.175,0.1757,0.1757,0.1757,0.1753,0.1753,0.1752,0.1752,0,0,0.2033,0.199,0.1989,0.1975,0.1944,0.1931,0.1917,0.1895,0.1886,0.1865,0.1853,0.1828,0.1819,0.1805,0.1789,0.1782,0.1784,0.1773,0.1772,0.1776,0.1773,0.178,0.1781,0.1774,0.1774,0.1774,0.1775,0,0.2037,0.2011,0.1989,0.1971,0.1956,0.1933,0.1921,0.1901,0.1884,0.1869,0.185,0.1833,0.1822,0.1813,0.1805,0.1785,0.1783,0.1785,0.1763,0.1762,0.177,0.178,0.1789,0.179,0.1774,0.1774,0.1774,0,0.2039,0.2019,0.2,0.197,0.1962,0.1952,0.1929,0.1914,0.1891,0.1879,0.1863,0.1846,0.183,0.1822,0.18,0.1802,0.1791,0.178,0.1779,0.1777,0.1769,0.1778,0.179,0.1791,0.1774,0.1774,0.1774,0,0.2059,0.2028,0.2012,0.2001,0.1966,0.1959,0.1944,0.192,0.1907,0.1887,0.1878,0.1857,0.1845,0.1828,0.1806,0.1802,0.1785,0.1776,0.1775,0.1776,0.1773,0.1774,0.1784,0.1766,0.1766,0.1766,0.1766,0,0.2067,0.2056,0.2021,0.2011,0.1998,0.1972,0.196,0.1943,0.1922,0.1908,0.1887,0.1875,0.1846,0.183,0.1812,0.1796,0.1791,0.1781,0.1776,0.1783,0.1784,0.1776,0.1775,0.1766,0.1766,0.1766,0.1766,0,0.2088,0.2064,0.2045,0.2013,0.2005,0.1996,0.1969,0.1958,0.194,0.1923,0.1917,0.1889,0.1869,0.1844,0.1817,0.1805,0.179,0.1783,0.1799,0.1796,0.1797,0.1797,0.1802,0.1801,0.1784,0.1784,0.1784,0,0.2095,0.2086,0.2052,0.2042,0.2027,0.201,0.1997,0.1971,0.1958,0.193,0.1923,0.1901,0.1883,0.1852,0.1828,0.1807,0.1799,0.1803,0.1796,0.1803,0.18,0.1801,0.1799,0.1805,0.1805,0.1805,0.1805,0,0.2109,0.2097,0.2079,0.2057,0.2041,0.2022,0.2002,0.1995,0.1965,0.1951,0.1931,0.1916,0.1888,0.1866,0.1842,0.1826,0.1811,0.1807,0.1806,0.1813,0.1822,0.1817,0.1804,0.1808,0.1807,0.1807,0.1807,0.1807,0.2123,0.2114,0.2089,0.2069,0.2051,0.2033,0.2021,0.2001,0.1983,0.1958,0.1943,0.1923,0.1898,0.1864,0.1848,0.1832,0.1826,0.1825,0.1824,0.1824,0.1826,0.1824,0.1827,0.1827,0.1827,0.1827,0.1827,0,0.2137,0.2119,0.2101,0.2074,0.2058,0.2044,0.2021,0.2009,0.1991,0.1969,0.1951,0.1927,0.1906,0.188,0.1858,0.1849,0.1842,0.1844,0.1845,0.1841,0.1832,0.1836,0.1851,0.1851,0.1851,0.1851,0.1851,0.1851,0.2142,0.2125,0.211,0.2084,0.2067,0.2046,0.2034,0.2017,0.2,0.1973,0.1956,0.1939,0.1915,0.1891,0.1871,0.1864,0.1856,0.1861,0.1852,0.1844,0.1842,0.184,0.1843,0.1859,0.186,0.1862,0.1862,0.1862]}]]